Flag for Russia Weather past 2 weeks in Yakutsk, Russia

Now
50 °F

Sunny.


Feels Like: 49 °F
Forecast: 52 / 77 °F
Wind: 3 mph from Northwest

Location: Jakutsk

Current Time: Jul 30, 2014 at 6:22:52 AM

Latest Report: Jul 30, 2014 at 6:00 AM


Visibility: 10 mi

Pressure: 29.62 "Hg

Humidity: 88%

Dew point: 46 °F

Location of YakutskLocation

Historic Weather in Yakutsk — Graph

°F

Yakutsk temperature yesterday

Maximum temperature yesterday: 79 °F (at 4:30 PM)
Minimum temperature yesterday: 45 °F (at 4:30 AM)
Average temperature yesterday: 65 °F

Past Weeks' High & Low Weather Summary

 TemperatureHumidityPressure
High88 °F (Jul 16, 4:30 PM)100% (Jul 21, 5:00 AM)29.95 "Hg (Jul 21, 5:00 AM)
Low36 °F (Jul 19, 12:00 PM)17% (Jul 26, 4:00 PM)29.30 "Hg (Jul 22, 11:00 PM)
Average67 °F58%29.61 "Hg
* Reported Jul 15 5:00 AM — Jul 30 5:00 AM, Yakutsk, Weather by CustomWeather, © 2014

Note: Actual official high and low records may vary slightly from our data, if they occured in-between our weather recording intervals... More about our weather records

Advertising

Yakutsk weather history for previous 24 hours

 ConditionsComfort  
Time TempWeatherWind HumidityBarometerVisibility
5:00 AM
Jul 30
50 °FClear.3 mph88%29.59 "Hg10 mi
4:30 AM52 °FClear.3 mph82%29.59 "Hg10 mi
4:00 AM54 °FClear.1 mph82%29.59 "Hg10 mi
3:30 AM54 °FClear.1 mph82%29.59 "Hg10 mi
3:00 AM54 °FClear.1 mph82%29.59 "Hg10 mi
2:30 AM54 °FClear.3 mph82%29.59 "Hg10 mi
2:00 AM55 °FClear.3 mph77%29.59 "Hg10 mi
1:30 AM55 °FClear.3 mph82%29.59 "Hg10 mi
1:00 AM57 °FClear.1 mph77%29.56 "Hg10 mi
12:30 AM61 °FClear.1 mph72%29.56 "Hg10 mi
12:00 AM61 °FClear.No wind72%29.56 "Hg10 mi
11:30 PM
Jul 29
64 °FClear.1 mph64%29.56 "Hg10 mi
11:00 PM66 °FSunny.3 mph60%29.56 "Hg10 mi
10:30 PM68 °FSunny.3 mph56%29.56 "Hg10 mi
10:00 PM70 °FSunny.3 mph50%29.56 "Hg10 mi
9:30 PM72 °FSunny.3 mph44%29.56 "Hg10 mi
9:00 PM72 °FSunny.3 mph44%29.53 "Hg10 mi
8:30 PM75 °FSunny.3 mph39%29.53 "Hg10 mi
8:00 PM75 °FSunny.6 mph34%29.53 "Hg10 mi
7:30 PM77 °FSunny.3 mph32%29.53 "Hg10 mi
7:00 PM77 °FSunny.3 mph30%29.53 "Hg10 mi
6:30 PM77 °FSunny.1 mph30%29.53 "Hg10 mi
6:00 PM77 °FSunny.1 mph30%29.53 "Hg10 mi
5:30 PM77 °FSunny.1 mph32%29.53 "Hg10 mi
5:00 PM77 °FSunny.1 mph32%29.53 "Hg10 mi
4:30 PM79 °FSunny.No wind30%29.53 "Hg10 mi
4:00 PM77 °FSunny.1 mph32%29.53 "Hg10 mi
3:30 PM77 °FSunny.1 mph32%29.53 "Hg10 mi
3:00 PM77 °FSunny.3 mph30%29.53 "Hg10 mi
2:30 PM75 °FSunny.3 mph31%29.53 "Hg10 mi
2:00 PM77 °FSunny.1 mph30%29.53 "Hg10 mi
1:30 PM77 °FSunny.No wind30%29.56 "Hg10 mi
1:00 PM75 °FSunny.1 mph31%29.56 "Hg10 mi
12:30 PM75 °FSunny.1 mph36%29.56 "Hg10 mi
12:00 PM73 °FSunny.3 mph41%29.56 "Hg10 mi
11:30 AM73 °FSunny.1 mph47%29.56 "Hg10 mi
11:00 AM70 °FSunny.1 mph60%29.56 "Hg10 mi
10:30 AM68 °FSunny.1 mph60%29.56 "Hg10 mi
10:00 AM68 °FSunny.No wind60%29.56 "Hg10 mi
9:30 AM64 °FSunny.1 mph64%29.56 "Hg10 mi
9:00 AM63 °FSunny.No wind73%29.59 "Hg10 mi
8:30 AM59 °FSunny.No wind77%29.59 "Hg10 mi
8:00 AM59 °FSunny.No wind77%29.59 "Hg10 mi
7:30 AM55 °FSunny.1 mph82%29.59 "Hg10 mi
7:00 AM52 °FSunny.1 mph77%29.56 "Hg10 mi
6:30 AM50 °FSunny.1 mph82%29.56 "Hg10 mi
6:00 AM46 °FSunny.3 mph87%29.56 "Hg10 mi
Weather by CustomWeather, © 2014

See weather overviewHow to use our weather pages